Flag for U.S.A. Weather past 2 weeks in Allentown, Pennsylvania, U.S.A.

Now
38 °F

Overcast.


Feels Like: 29 °F
Forecast: 32 / 39 °F
Wind: 16 mph from West

Location: Lehigh Valley International Airport

Current Time: Dec 18, 2014 at 4:52:40 PM

Latest Report: Dec 18, 2014 at 3:51 PM


Visibility: 10 mi

Pressure: 30.01 "Hg

Humidity: 55%

Dew point: 23 °F

Location of AllentownLocation

Historic Weather in Allentown — Graph

°F

Allentown temperature yesterday

Maximum temperature yesterday: 50 °F (at 11:51 AM)
Minimum temperature yesterday: 37 °F (at 9:51 PM)
Average temperature yesterday: 43 °F

Past Weeks' High & Low Weather Summary

 TemperatureHumidityPressure
High50 °F (Dec 17, 11:51 AM)93% (Dec 5, 10:03 PM)30.68 "Hg (Dec 5, 10:03 PM)
Low20 °F (Dec 8, 6:51 AM)28% (Dec 7, 12:51 PM)29.69 "Hg (Dec 10, 2:51 PM)
Average37 °F69%30.10 "Hg
* Reported Dec 3 2:51 PM — Dec 18 2:51 PM, Allentown, Weather by CustomWeather, © 2014

Note: Actual official high and low records may vary slightly from our data, if they occured in-between our weather recording intervals... More about our weather records

Advertising

Allentown weather history for previous 24 hours

 ConditionsComfort  
Time TempWeatherWind HumidityBarometerVisibility
2:51 PM
Dec 18
38 °FOvercast.16 mph55%30.01 "Hg10 mi
1:51 PM39 °FOvercast.15 mph50%30.01 "Hg10 mi
12:51 PM39 °FOvercast.12 mph50%30.01 "Hg10 mi
11:51 AM39 °FOvercast.12 mph48%30.03 "Hg10 mi
10:51 AM38 °FOvercast.13 mph51%30.04 "Hg10 mi
9:51 AM37 °FOvercast.12 mph50%30.06 "Hg10 mi
8:51 AM37 °FOvercast.14 mph50%30.05 "Hg10 mi
7:51 AM36 °FOvercast.16 mph54%30.02 "Hg10 mi
6:51 AM36 °FOvercast.17 mph54%30.01 "Hg10 mi
5:51 AM35 °FOvercast.14 mph56%30.00 "Hg10 mi
4:51 AM34 °FClear.9 mph56%29.98 "Hg10 mi
3:51 AM34 °FClear.13 mph59%29.98 "Hg10 mi
2:51 AM36 °FPassing clouds.14 mph54%29.97 "Hg10 mi
1:51 AM37 °FOvercast.17 mph54%29.96 "Hg10 mi
12:51 AM37 °FOvercast.12 mph57%29.95 "Hg10 mi
11:51 PM
Dec 17
37 °FOvercast.15 mph52%29.95 "Hg10 mi
10:51 PM37 °FOvercast.13 mph52%29.96 "Hg10 mi
9:51 PM37 °FPassing clouds.12 mph57%29.96 "Hg10 mi
8:51 PM39 °FClear.15 mph57%29.94 "Hg10 mi
7:51 PM41 °FOvercast.10 mph53%29.95 "Hg10 mi
6:51 PM43 °FOvercast.8 mph53%29.94 "Hg10 mi
5:51 PM43 °FOvercast.17 mph56%29.92 "Hg10 mi
4:51 PM44 °FMostly cloudy.12 mph58%29.91 "Hg10 mi
Weather by CustomWeather, © 2014

See weather overviewHow to use our weather pages